Auburn, IN

9:40 AM EST on January 22, 2018 (GMT -0500)
Auburn

Weather History for KGWB - October, 2012

Change the Weather History Date:

Monday, October 8, 2012

  Actual Average (KFWA) Record (KFWA)
Temperature  
Mean Temperature 42 °F -  
Max Temperature 53 °F 66 °F 89 °F (1939)
Min Temperature 30 °F 44 °F 28 °F (1952)
Degree Days  
Heating Degree Days 24    
Moisture  
Dew Point 30 °F    
Average Humidity 71    
Maximum Humidity 100    
Minimum Humidity 33    
Precipitation  
Precipitation 0.00 in - - ()
Sea Level Pressure  
Sea Level Pressure 30.17 in    
Wind  
Wind Speed 1 mph (SSW)    
Max Wind Speed 7 mph    
Max Gust Speed -    
Visibility 9 miles    
Events      
Averages and records for this station are not official NWS values.
T = Trace of Precipitation, MM = Missing Value Source: NWS Daily Summary

Daily Weather History Graph

Daily Weather History Graph

Search for Another Location

Airport or City:

Trip Planner

Search our weather history database for the weather conditions in past years. The results will help you decide how hot, cold, wet, or windy it might be!

Date:

Astronomy

Oct. 08, 2012 Rise Set
Actual Time 7:44 AM EDT 7:09 PM EDT
Civil Twilight 7:17 AM EDT 7:37 PM EDT
Nautical Twilight 6:45 AM EDT 8:09 PM EDT
Astronomical Twilight 6:13 AM EDT 8:41 PM EDT
Moon 12:19 AM EDT (10/8) 3:02 PM EDT (10/8)
Length of Visible Light 12h 20m
Length of Day
11h 24m
Waning Gibbous, 46% of the Moon is Illuminated
Oct 8
Waning Gibbous
Oct 15
New
Oct 21
First Quarter
Oct 29
Full
Nov 6
Last Quarter

Hourly Weather History & Observations

Time (EDT) Temp. Windchill Dew Point Humidity Pressure Visibility Wind Dir Wind Speed Gust Speed Precip Events Conditions
12:15 AM 37.4 °F - 35.6 °F 93% 30.17 in 10.0 mi Calm Calm - N/A   Overcast
12:35 AM 37.4 °F - 35.6 °F 93% 30.17 in 10.0 mi Calm Calm - N/A   Overcast
12:55 AM 39.2 °F 37.0 °F 35.6 °F 87% 30.17 in 10.0 mi SW 3.5 mph - N/A   Overcast
1:15 AM 41.0 °F - 35.6 °F 81% 30.17 in 10.0 mi Calm Calm - N/A   Overcast
1:35 AM 41.0 °F - 35.6 °F 81% 30.18 in 10.0 mi Calm Calm - N/A   Overcast
1:55 AM 41.0 °F - 35.6 °F 81% 30.18 in 10.0 mi Calm Calm - N/A   Overcast
2:15 AM 41.0 °F - 35.6 °F 81% 30.18 in 10.0 mi Calm Calm - N/A   Overcast
2:35 AM 39.2 °F - 35.6 °F 87% 30.19 in 10.0 mi Calm Calm - N/A   Overcast
2:55 AM 37.4 °F - 35.6 °F 93% 30.20 in 10.0 mi Calm Calm - N/A   Scattered Clouds
3:15 AM 37.4 °F 34.9 °F 33.8 °F 87% 30.19 in 10.0 mi SSW 3.5 mph - N/A   Clear
3:35 AM 37.4 °F 34.9 °F 33.8 °F 87% 30.20 in 10.0 mi SSW 3.5 mph - N/A   Clear
3:55 AM 33.8 °F - 32.0 °F 93% 30.19 in 10.0 mi Calm Calm - N/A   Clear
4:15 AM 33.8 °F - 32.0 °F 93% 30.18 in 10.0 mi Calm Calm - N/A   Clear
4:35 AM 33.8 °F - 32.0 °F 93% 30.18 in 10.0 mi Calm Calm - N/A   Clear
4:55 AM 33.8 °F - 32.0 °F 93% 30.19 in 10.0 mi Calm Calm - N/A   Clear
5:15 AM 32.0 °F - 32.0 °F 100% 30.19 in 7.0 mi Calm Calm - N/A   Clear
5:35 AM 32.0 °F - 30.2 °F 93% 30.20 in 7.0 mi Calm Calm - N/A   Clear
5:55 AM 32.0 °F - 30.2 °F 93% 30.20 in 7.0 mi Calm Calm - N/A   Clear
6:15 AM 32.0 °F - 30.2 °F 93% 30.20 in 7.0 mi Calm Calm - N/A   Clear
6:35 AM 32.0 °F - 30.2 °F 93% 30.20 in 10.0 mi Calm Calm - N/A   Clear
6:55 AM 32.0 °F - 30.2 °F 93% 30.20 in 7.0 mi Calm Calm - N/A   Clear
7:15 AM 30.2 °F - 28.4 °F 93% 30.21 in 7.0 mi Calm Calm - N/A   Clear
7:35 AM 30.2 °F - 28.4 °F 93% 30.21 in 7.0 mi Calm Calm - N/A   Clear
7:55 AM 30.2 °F - 28.4 °F 93% 30.21 in 7.0 mi Calm Calm - N/A   Clear
8:15 AM 32.0 °F - 30.2 °F 93% 30.21 in 7.0 mi Calm Calm - N/A   Clear
8:35 AM 32.0 °F - 30.2 °F 93% 30.22 in 7.0 mi Calm Calm - N/A   Clear
8:55 AM 32.0 °F - 32.0 °F 100% 30.22 in 7.0 mi Calm Calm - N/A   Clear
9:15 AM 35.6 °F - 32.0 °F 87% 30.22 in 10.0 mi Calm Calm - N/A   Clear
9:35 AM 37.4 °F - 32.0 °F 81% 30.22 in 10.0 mi Calm Calm - N/A   Clear
9:55 AM 41.0 °F 39.0 °F 32.0 °F 70% 30.23 in 10.0 mi SSW 3.5 mph - N/A   Clear
10:15 AM 42.8 °F 40.1 °F 30.2 °F 61% 30.23 in 10.0 mi SW 4.6 mph - N/A   Clear
1:55 PM 51.8 °F - 23.0 °F 33% 30.18 in 10.0 mi SSW 4.6 mph - N/A   Clear
2:15 PM 51.8 °F - 26.6 °F 38% 30.17 in 10.0 mi SW 6.9 mph - N/A   Clear
2:55 PM 53.6 °F - 26.6 °F 35% 30.15 in 10.0 mi SSW 6.9 mph - N/A   Clear
3:15 PM 53.6 °F - 26.6 °F 35% 30.15 in 10.0 mi SSW 5.8 mph - N/A   Clear
3:35 PM 53.6 °F - 26.6 °F 35% 30.13 in 10.0 mi SSW 3.5 mph - N/A   Clear
3:55 PM 53.6 °F - 24.8 °F 33% 30.13 in 10.0 mi SW 5.8 mph - N/A   Clear
4:15 PM 53.6 °F - 26.6 °F 35% 30.13 in 10.0 mi South 5.8 mph - N/A   Clear
4:35 PM 53.6 °F - 24.8 °F 33% 30.13 in 10.0 mi SSW 4.6 mph - N/A   Clear
4:55 PM 53.6 °F - 24.8 °F 33% 30.12 in 10.0 mi SSW 6.9 mph - N/A   Clear
5:15 PM 53.6 °F - 24.8 °F 33% 30.12 in 10.0 mi South 5.8 mph - N/A   Clear
5:35 PM 53.6 °F - 24.8 °F 33% 30.12 in 10.0 mi South 3.5 mph - N/A   Clear
5:55 PM 53.6 °F - 24.8 °F 33% 30.11 in 10.0 mi SSW 4.6 mph - N/A   Clear
6:15 PM 53.6 °F - 24.8 °F 33% 30.11 in 10.0 mi Calm Calm - N/A   Clear
6:35 PM 51.8 °F - 24.8 °F 35% 30.11 in 10.0 mi SSW 3.5 mph - N/A   Clear
6:55 PM 50.0 °F - 24.8 °F 37% 30.10 in 10.0 mi SSW 3.5 mph - N/A   Clear
8:15 PM 41.0 °F - 28.4 °F 61% 30.10 in 10.0 mi Calm Calm - N/A   Clear
8:55 PM 41.0 °F - 30.2 °F 65% 30.11 in 10.0 mi Calm Calm - N/A   Clear
9:55 PM 37.4 °F - 30.2 °F 75% 30.13 in 10.0 mi Calm Calm - N/A   Clear
10:15 PM 37.4 °F - 28.4 °F 70% 30.13 in 10.0 mi Calm Calm - N/A   Clear
10:35 PM 37.4 °F - 30.2 °F 75% 30.13 in 10.0 mi Calm Calm - N/A   Clear
10:55 PM 37.4 °F - 30.2 °F 75% 30.13 in 10.0 mi Calm Calm - N/A   Clear
11:55 PM 35.6 °F - 30.2 °F 81% 30.13 in 10.0 mi Calm Calm - N/A   Clear